Capitol Logistics 308


KPVD
Theodore Francis Green State Airport
Providence, Rhode Island, US
KRFD
Chicago/Rockford International Airport
Rockford, Illinois, US

Route Details

Aircraft Information
Primary: Boeing 767-300BDSF
Backup: Not Available
Route Data
Distance: 790nm
Sched. Duration: 1h 39m
Avg. Duration: 2h 27m (+88m)
Times Flown: 11
Recm'd Route: BAF HNK NUGNT DJB J60 JOT V171 RFD
Planned Altitude: 38,000ft
Origin Wx: KPVD 251051Z 35008KT 10SM CLR 06/01 A3018 RMK AO2 SLP219 T00610006
Dest. Wx: KRFD 251054Z 02008KT 10SM OVC048 02/M03 A3027 RMK AO2 SLP258 T00221033
Notes:

Financial History
Total Freight: 595,773lbs
Average Load: 54,161lbs/flt
Fuel Used: 202,917lbs
Avg. Fuel Used: 18,447lbs/flt
Fuel Expense: $192,771
Avg. Fuel Expense: $17,525
Avg. Fuel Cost: $0.95/lbs
Total Gross Income: $787,557
Pilot Pay: $1,799
Total Expenses: $85,628
Total Revenue: $503,124
Average Revenue: $71,596.05